timestamp,wind_dir_avg,wind_spd_avg,wind_spd_max_dir,wind_spd_gust,battery_voltage,lat,long
2021-11-15 00:04:00+00:00,233.0,9.84,238.0,11.98,12.57,47.59359,-54.27349
2021-11-15 00:14:00+00:00,233.0,11.46,231.0,13.02,12.49,47.59359,-54.27349
2021-11-15 00:24:00+00:00,236.0,11.21,239.0,12.45,12.49,47.59359,-54.27349
2021-11-15 00:34:00+00:00,232.0,9.18,236.0,10.41,12.49,47.59359,-54.27349
2021-11-15 00:44:00+00:00,231.0,10.04,233.0,11.42,12.49,47.59359,-54.27349
2021-11-15 00:54:00+00:00,240.0,11.43,243.0,13.13,12.49,47.59359,-54.27349
2021-11-15 01:04:00+00:00,248.0,10.98,250.0,12.24,12.49,47.59359,-54.27349
2021-11-15 01:14:01+00:00,250.0,11.32,253.0,13.09,12.49,47.59359,-54.27349
2021-11-15 01:24:01+00:00,249.0,10.03,251.0,11.41,12.49,47.59359,-54.27349
2021-11-15 01:34:01+00:00,249.0,11.55,251.0,12.63,12.49,47.59359,-54.27349
2021-11-15 01:44:01+00:00,247.0,12.41,239.0,14.08,12.49,47.59359,-54.27349
2021-11-15 01:54:01+00:00,251.0,11.7,257.0,13.88,12.49,47.59359,-54.27349
2021-11-15 02:04:01+00:00,248.0,11.91,246.0,13.39,12.49,47.59359,-54.27349
2021-11-15 02:14:00+00:00,252.0,9.17,251.0,10.48,12.41,47.59359,-54.27349
2021-11-15 02:24:00+00:00,250.0,10.79,249.0,12.92,12.41,47.59359,-54.27349
2021-11-15 02:34:00+00:00,251.0,10.92,252.0,12.42,12.41,47.59359,-54.27349
2021-11-15 02:44:00+00:00,250.0,11.88,250.0,12.58,12.41,47.59359,-54.27349
2021-11-15 02:54:00+00:00,253.0,11.09,252.0,12.5,12.41,47.59359,-54.27349
2021-11-15 03:04:00+00:00,250.0,11.66,244.0,13.37,12.41,47.59359,-54.27349
2021-11-15 03:14:00+00:00,243.0,11.44,238.0,13.58,12.41,47.59359,-54.27349
2021-11-15 03:24:00+00:00,246.0,10.73,250.0,12.27,12.41,47.59359,-54.27349
2021-11-15 03:34:00+00:00,249.0,12.39,247.0,13.66,12.41,47.59359,-54.27349
2021-11-15 03:44:00+00:00,253.0,10.24,254.0,11.59,12.41,47.59359,-54.27349
2021-11-15 03:54:00+00:00,250.0,10.65,248.0,12.17,12.41,47.59359,-54.27349
2021-11-15 04:04:00+00:00,253.0,10.51,249.0,12.12,12.41,47.59359,-54.27349
2021-11-15 04:14:00+00:00,248.0,10.32,246.0,11.67,12.41,47.59359,-54.27349
2021-11-15 04:24:00+00:00,252.0,10.06,250.0,11.6,12.41,47.59359,-54.27349
2021-11-15 04:34:00+00:00,248.0,10.87,253.0,11.96,12.41,47.59359,-54.27349
2021-11-15 04:44:00+00:00,256.0,9.61,255.0,11.44,12.41,47.59359,-54.27349
2021-11-15 04:54:00+00:00,259.0,8.13,262.0,10.26,12.41,47.59359,-54.27349
2021-11-15 05:04:00+00:00,253.0,8.18,258.0,8.95,12.41,47.59359,-54.27349
2021-11-15 05:14:00+00:00,249.0,6.36,251.0,7.27,12.33,47.59359,-54.27349
2021-11-15 05:24:00+00:00,247.0,6.15,247.0,6.75,12.33,47.59359,-54.27349
2021-11-15 05:34:00+00:00,259.0,7.86,259.0,8.84,12.33,47.59359,-54.27349
2021-11-15 05:44:00+00:00,258.0,7.96,259.0,8.67,12.33,47.59359,-54.27349
2021-11-15 05:54:00+00:00,266.0,6.7,262.0,7.5,12.33,47.59359,-54.27349
2021-11-15 06:04:00+00:00,256.0,6.8,258.0,7.79,12.33,47.59359,-54.27349
2021-11-15 06:14:00+00:00,265.0,7.78,267.0,8.94,12.33,47.59359,-54.27349
2021-11-15 06:24:00+00:00,265.0,9.61,269.0,13.68,12.33,47.59359,-54.27349
2021-11-15 06:34:00+00:00,272.0,9.97,276.0,13.76,12.33,47.59359,-54.27349
2021-11-15 06:44:00+00:00,279.0,6.3,284.0,7.13,12.33,47.59359,-54.27349
2021-11-15 06:54:00+00:00,271.0,7.78,274.0,8.95,12.33,47.59359,-54.27349
2021-11-15 07:04:00+00:00,280.0,8.87,276.0,11.62,12.33,47.59359,-54.27349
2021-11-15 07:14:00+00:00,285.0,7.51,284.0,8.39,12.33,47.59359,-54.27349
2021-11-15 07:24:00+00:00,268.0,6.17,269.0,6.84,12.33,47.59359,-54.27349
2021-11-15 07:34:00+00:00,274.0,6.65,271.0,7.58,12.33,47.59359,-54.27349
2021-11-15 07:44:00+00:00,282.0,9.28,282.0,13.55,12.33,47.59359,-54.27349
2021-11-15 07:54:00+00:00,282.0,6.28,269.0,7.25,12.33,47.59359,-54.27349
2021-11-15 08:04:00+00:00,285.0,5.57,287.0,6.75,12.33,47.59359,-54.27349
2021-11-15 08:14:01+00:00,291.0,8.17,290.0,11.35,12.33,47.59359,-54.27349
2021-11-15 08:24:01+00:00,286.0,7.25,292.0,8.12,12.33,47.59359,-54.27349
2021-11-15 08:34:01+00:00,293.0,5.68,296.0,6.49,12.33,47.59359,-54.27349
2021-11-15 08:44:01+00:00,293.0,5.87,298.0,6.73,12.33,47.59359,-54.27349
2021-11-15 08:54:01+00:00,316.0,4.73,313.0,5.5,12.33,47.59359,-54.27349
2021-11-15 09:04:01+00:00,320.0,5.46,312.0,6.52,12.33,47.59359,-54.27349
2021-11-15 09:14:01+00:00,320.0,6.15,310.0,7.22,12.33,47.59359,-54.27349
2021-11-15 09:24:01+00:00,311.0,4.94,301.0,6.57,12.33,47.59359,-54.27349
2021-11-15 09:34:01+00:00,302.0,7.12,302.0,7.58,12.33,47.59359,-54.27349
2021-11-15 09:44:01+00:00,312.0,5.88,309.0,7.05,12.33,47.59359,-54.27349
2021-11-15 09:54:01+00:00,304.0,7.07,308.0,7.79,12.33,47.59359,-54.27349
2021-11-15 10:04:01+00:00,339.0,5.5,323.0,6.55,12.33,47.59359,-54.27349
2021-11-15 10:14:00+00:00,311.0,7.51,311.0,7.93,12.33,47.59359,-54.27349
2021-11-15 10:24:00+00:00,352.0,4.77,310.0,6.85,12.33,47.59359,-54.27349
2021-11-15 10:34:00+00:00,312.0,6.51,316.0,7.39,12.33,47.59359,-54.27349
2021-11-15 10:44:00+00:00,15.0,3.68,48.0,5.59,12.33,47.59359,-54.27349
2021-11-15 10:54:00+00:00,356.0,4.31,358.0,4.97,12.33,47.59359,-54.27349
2021-11-15 11:04:00+00:00,4.0,4.91,0.0,5.45,12.33,47.59359,-54.27349
2021-11-15 11:14:00+00:00,2.0,4.51,3.0,5.43,12.33,47.59359,-54.27349
2021-11-15 11:24:00+00:00,12.0,4.37,42.0,6.99,12.33,47.59359,-54.27349
2021-11-15 11:34:00+00:00,47.0,7.03,49.0,8.14,12.33,47.59359,-54.27349
2021-11-15 11:44:00+00:00,6.0,3.68,35.0,5.45,12.33,47.59359,-54.27349
2021-11-15 11:54:00+00:00,355.0,4.4,359.0,5.03,12.33,47.59359,-54.27349
2021-11-15 12:04:00+00:00,349.0,3.84,312.0,5.64,12.33,47.59359,-54.27349
2021-11-15 12:14:01+00:00,343.0,2.75,341.0,3.49,13.21,47.59359,-54.27349
2021-11-15 12:24:01+00:00,301.0,2.31,282.0,5.45,13.21,47.59359,-54.27349
2021-11-15 12:34:01+00:00,349.0,2.62,352.0,3.14,13.21,47.59359,-54.27349
2021-11-15 12:44:01+00:00,353.0,2.41,353.0,2.9,13.21,47.59359,-54.27349
2021-11-15 12:54:01+00:00,4.0,1.84,11.0,2.4,13.21,47.59359,-54.27349
2021-11-15 13:04:01+00:00,7.0,2.02,14.0,2.6,13.21,47.59359,-54.27349
2021-11-15 13:14:00+00:00,0.0,2.19,359.0,2.75,13.29,47.59359,-54.27349
2021-11-15 13:24:00+00:00,54.0,3.24,69.0,5.61,13.29,47.59359,-54.27349
2021-11-15 13:34:00+00:00,67.0,4.85,73.0,5.85,13.29,47.59359,-54.27349
2021-11-15 13:44:00+00:00,47.0,2.19,69.0,5.68,13.29,47.59359,-54.27349
2021-11-15 13:54:00+00:00,77.0,5.58,76.0,5.83,13.29,47.59359,-54.27349
2021-11-15 14:04:00+00:00,57.0,1.99,74.0,4.04,13.29,47.59359,-54.27349
2021-11-15 14:14:01+00:00,70.0,2.29,79.0,5.63,14.24,47.59359,-54.27349
2021-11-15 14:24:01+00:00,60.0,1.19,76.0,2.65,14.24,47.59359,-54.27349
2021-11-15 14:34:01+00:00,59.0,1.21,74.0,2.71,14.24,47.59359,-54.27349
2021-11-15 14:44:01+00:00,79.0,5.65,79.0,6.17,14.24,47.59359,-54.27349
2021-11-15 14:54:01+00:00,74.0,5.15,83.0,6.9,14.24,47.59359,-54.27349
2021-11-15 15:04:01+00:00,69.0,5.94,73.0,6.89,14.24,47.59359,-54.27349
2021-11-15 15:14:01+00:00,75.0,5.06,76.0,7.02,14.32,47.59359,-54.27349
2021-11-15 15:24:01+00:00,101.0,6.41,104.0,6.82,14.32,47.59359,-54.27349
2021-11-15 15:34:01+00:00,117.0,6.61,119.0,7.44,14.32,47.59359,-54.27349
2021-11-15 15:44:01+00:00,115.0,4.5,114.0,5.9,14.32,47.59359,-54.27349
2021-11-15 15:54:01+00:00,180.0,2.4,179.0,2.68,14.32,47.59359,-54.27349
2021-11-15 16:04:01+00:00,169.0,1.72,169.0,2.09,14.32,47.59359,-54.27349
2021-11-15 16:14:01+00:00,173.0,2.69,177.0,3.08,13.92,47.59359,-54.27349
2021-11-15 16:24:01+00:00,175.0,3.03,173.0,3.55,13.92,47.59359,-54.27349
2021-11-15 16:34:01+00:00,184.0,2.64,186.0,2.89,13.92,47.59359,-54.27349
2021-11-15 16:44:01+00:00,197.0,2.96,193.0,3.47,13.92,47.59359,-54.27349
2021-11-15 16:54:01+00:00,224.0,3.81,237.0,4.9,13.92,47.59359,-54.27349
2021-11-15 17:04:01+00:00,225.0,2.18,252.0,5.3,13.92,47.59359,-54.27349
2021-11-15 17:14:01+00:00,256.0,4.43,259.0,6.38,13.44,47.59359,-54.27349
2021-11-15 17:24:01+00:00,232.0,1.89,251.0,4.14,13.44,47.59359,-54.27349
2021-11-15 17:34:01+00:00,214.0,3.52,225.0,4.98,13.44,47.59359,-54.27349
2021-11-15 17:44:01+00:00,188.0,3.29,186.0,3.92,13.44,47.59359,-54.27349
2021-11-15 17:54:01+00:00,173.0,5.03,178.0,5.61,13.44,47.59359,-54.27349
2021-11-15 18:04:01+00:00,176.0,4.0,177.0,4.72,13.44,47.59359,-54.27349
2021-11-15 18:14:01+00:00,184.0,3.64,182.0,4.22,13.29,47.59359,-54.27349
2021-11-15 18:24:01+00:00,197.0,5.79,215.0,7.04,13.29,47.59359,-54.27349
2021-11-15 18:34:01+00:00,186.0,6.07,186.0,6.64,13.29,47.59359,-54.27349
2021-11-15 18:44:01+00:00,193.0,5.45,189.0,5.99,13.29,47.59359,-54.27349
2021-11-15 18:54:01+00:00,188.0,5.13,191.0,6.13,13.29,47.59359,-54.27349
2021-11-15 19:04:01+00:00,189.0,4.55,187.0,5.36,13.29,47.59359,-54.27349
2021-11-15 19:14:00+00:00,181.0,5.75,181.0,6.47,13.05,47.59359,-54.27349
2021-11-15 19:24:00+00:00,200.0,5.56,198.0,6.74,13.05,47.59359,-54.27349
2021-11-15 19:34:00+00:00,192.0,5.88,192.0,6.8,13.05,47.59359,-54.27349
2021-11-15 19:44:00+00:00,201.0,8.45,202.0,9.95,13.05,47.59359,-54.27349
2021-11-15 19:54:00+00:00,205.0,8.35,208.0,9.32,13.05,47.59359,-54.27349
2021-11-15 20:04:00+00:00,187.0,6.88,185.0,7.82,13.05,47.59359,-54.27349
2021-11-15 20:14:00+00:00,184.0,6.37,182.0,8.0,12.73,47.59359,-54.27349
2021-11-15 20:24:00+00:00,173.0,7.11,144.0,8.96,12.73,47.59359,-54.27349
2021-11-15 20:34:00+00:00,178.0,6.79,177.0,7.36,12.73,47.59359,-54.27349
2021-11-15 20:44:00+00:00,141.0,6.27,132.0,8.12,12.73,47.59359,-54.27349
2021-11-15 20:54:00+00:00,137.0,5.91,131.0,7.35,12.73,47.59359,-54.27349
2021-11-15 21:04:00+00:00,145.0,5.38,127.0,6.97,12.73,47.59359,-54.27349
2021-11-15 21:14:00+00:00,143.0,5.63,132.0,7.5,12.65,47.59359,-54.27349
2021-11-15 21:24:00+00:00,171.0,4.68,145.0,6.09,12.65,47.59359,-54.27349
2021-11-15 21:34:00+00:00,185.0,4.8,189.0,5.65,12.65,47.59359,-54.27349
2021-11-15 21:44:00+00:00,174.0,4.21,179.0,5.25,12.65,47.59359,-54.27349
2021-11-15 21:54:00+00:00,168.0,4.59,137.0,6.1,12.65,47.59359,-54.27349
2021-11-15 22:04:00+00:00,175.0,5.23,180.0,6.33,12.65,47.59359,-54.27349
2021-11-15 22:14:01+00:00,138.0,5.76,128.0,7.04,12.65,47.59359,-54.27349
2021-11-15 22:24:01+00:00,127.0,6.31,121.0,7.51,12.65,47.59359,-54.27349
2021-11-15 22:34:01+00:00,142.0,6.17,133.0,7.71,12.65,47.59359,-54.27349
2021-11-15 22:44:01+00:00,138.0,7.41,137.0,8.74,12.65,47.59359,-54.27349
2021-11-15 22:54:01+00:00,144.0,6.65,134.0,8.17,12.65,47.59359,-54.27349
2021-11-15 23:04:01+00:00,147.0,7.91,142.0,9.3,12.65,47.59359,-54.27349
2021-11-15 23:14:00+00:00,172.0,8.8,150.0,10.87,12.65,47.59359,-54.27349
2021-11-15 23:24:00+00:00,176.0,8.62,154.0,10.0,12.65,47.59359,-54.27349
2021-11-15 23:34:00+00:00,156.0,7.31,145.0,10.03,12.65,47.59359,-54.27349
2021-11-15 23:44:00+00:00,146.0,9.72,145.0,10.97,12.65,47.59359,-54.27349
2021-11-15 23:54:00+00:00,147.0,10.29,150.0,11.78,12.65,47.59359,-54.27349
